Regional Weather Roundup
Issued by NWS State College, PA

Home | Current Version | Previous Version | Text Only | Print | Product List | Glossary On
Versions: 1 2 3 4 5 6 7 8 9 10 11 12 13 14 15 16 17 18 19 20 21 22 23 24 25 26 27 28 29 30 31 32 33 34 35 36 37 38 39 40 41 42 43 44 45 46 47 48 49 50
000
ASUS41 KCTP 021403
RWRCTP

REGIONAL WEATHER ROUNDUP
NATIONAL WEATHER SERVICE STATE COLLEGE PA
1000 AM EDT WED SEP 02 2015

Note: "fair" indicates few or no clouds below 12,000 feet with no
significant weather and/or obstructions to visibility.

* = STATION THAT DOES NOT REPORT PRECIPITATION /E.G. RAIN...SNOW...ETC/
    THUNDER OR FOG.

PAZ002>004-007>009-013>016-020>023-029>032-021500-
WESTERN PENNSYLVANIA

CITY           SKY/WX    TMP DP  RH WIND       PRES   REMARKS
ERIE           SUNNY     78  68  71 SW6       30.08S
MEADVILLE      SUNNY     75  67  76 W5        30.12S
FRANKLIN*      SUNNY     75  66  73 S5        30.13F
NEW CASTLE     FAIR      78  71  79 CALM      30.12S
BEAVER COUNTY  SUNNY     79  68  69 CALM      30.12F
BUTLER*        MOSUNNY   73  68  83 SE3       30.13F
PITTSBURGH INT PTSUNNY   78  68  71 VRB3      30.11F
PITTSBURGH     MOSUNNY   75  65  70 CALM      30.11S
INDIANA*       SUNNY     75  68  78 SW7       30.15
LATROBE        PTSUNNY   77  68  73 SW9       30.13S
WASHINGTON CO* PTSUNNY   75  68  78 CALM      30.13F
$$

PAZ004>006-010>012-017>019-024>028-033>037-041-042-045-046-049>053-021500-
CENTRAL PENNSYLVANIA

CITY           SKY/WX    TMP DP  RH WIND       PRES   REMARKS
BRADFORD       SUNNY     74  62  66 W6        30.14S
DUBOIS         SUNNY     77  64  64 W6        30.12F
CLEARFIELD     SUNNY     70  65  84 SW7       30.12F
JOHNSTOWN      MOSUNNY   73  65  75 CALM      30.16F
ALTOONA          N/A    N/A N/A N/A MISG      30.13F
STATE COLLEGE  SUNNY     73  68  83 CALM      30.10F
WILLIAMSPORT   MOSUNNY   73  65  75 W5        30.06F
SELINSGROVE    SUNNY     72  66  81 CALM      30.07F HAZE
FT INDIANTOWN  SUNNY     79  66  65 VRB1      30.05F
CAPITAL CITY   MOSUNNY   77  65  66 SW6       30.05F
HARRISBURG     MOSUNNY   79  65  62 NW8       30.05S
YORK           PTSUNNY   77  68  73 CALM      30.06S
$$

PAZ038>040-043-044-047-048-054-055-060>062-067>071-021500-
EASTERN PENNSYLVANIA

CITY           SKY/WX    TMP DP  RH WIND       PRES   REMARKS
SCRANTON       SUNNY     75  65  70 VRB3      30.07F
MOUNT POCONO   MOSUNNY   75  64  68 W5        30.11S
ALLENTOWN      MOSUNNY   77  67  71 CALM      30.04F
QUAKERTOWN*    MOSUNNY   79  68  69 CALM      30.05F
READING        MOSUNNY   77  67  71 CALM      30.04F
LANCASTER      MOSUNNY   76  67  73 W7        30.05F HAZE
COATESVILLE    PTSUNNY   81  66  61 W5        30.06F
POTTSTOWN      MOSUNNY   75  68  78 VRB3      30.05F
BLUE BELL      MOSUNNY   81  72  74 CALM      30.03F
DOYLESTOWN     MOSUNNY   77  68  73 CALM      30.03F
WILLOW GROVE   NOT AVBL
NORTH PHILA    PTSUNNY   78  69  73 CALM      30.05F HAZE
PHILADELPHIA   PTSUNNY   79  71  76 SE5       30.03F HAZE
$$



USA.gov is the U.S. government's official web portal to all federal, state and local government web resources and services.